Tracking 19795 objects as of 20-Jul-2019
HD Live streaming from Space Station
objects crossing your sky now

NOAA 16 DEB

Track NOAA 16 DEB now!
10-day predictions


NORAD ID: 42384
Int'l Code: 2000-055SC
Perigee: 840.2 km
Apogee: 865.5 km
Inclination: 98.8 °
Period: 101.8 minutes
Semi major axis: 7223 km
RCS: Unknown
Launch date: September 21, 2000
Source: United States (US)
Launch site: AIR FORCE WESTERN TEST RANGE (AFWTR)

Note: This is SATELLITE DEBRIS
aabbcc
Your satellite tracking list
Your tracking list is empty




NASA's NSSDC Master Catalog

Two Line Element Set (TLE):
1 42384U 00055SC  19199.42681114 +.00000358 +00000-0 +21101-3 0  9991
2 42384 098.8144 271.2979 0017491 022.9138 337.2812 14.14002214173490
Source of the keplerian elements: AFSPC